Location: Fredericton
(45.9636°N, 66.6431°W)
Time: 08:39:02
(UTC-03:00)

Vanguard 3 - All Passes

Search period start: 28 May 2022 00:00
Search period end: 07 June 2022 00:00
Orbit: 508 x 3258 km, 33.3° (Epoch: 27 May)

Date Brightness Start Highest point End Pass type
(mag) Time Alt. Az. Time Alt. Az. Time Alt. Az.
28 May - 02:09:31 10° SSW 02:11:31 14° S 02:13:40 10° SE visible
28 May - 04:19:42 10° SW 04:22:12 14° S 04:25:11 10° SSE visible
29 May - 00:56:42 10° S 00:57:35 11° S 00:58:27 10° SSE night (unlit)
29 May - 03:05:58 10° SW 03:08:07 14° S 03:10:34 10° SSE visible
30 May - 01:52:18 10° SSW 01:54:09 13° S 01:56:04 10° SSE night (unlit)
30 May - 04:03:36 10° SSW 04:04:49 11° S 04:06:08 10° S visible
31 May - 00:38:37 10° SSW 00:40:12 12° S 00:41:43 10° SSE night (unlit)
31 May - 02:49:12 10° SSW 02:50:45 12° S 02:52:24 10° SSE visible
31 May - 23:25:03 10° S 23:26:10 11° S 23:27:13 10° SSE visible
01 Jun - 01:34:58 10° SSW 01:36:47 13° S 01:38:36 10° SSE night (unlit)
02 Jun - 00:20:36 10° SSW 00:22:49 14° S 00:24:50 10° SSE visible
02 Jun - 02:32:48 10° SSW 02:33:22 10° S 02:33:56 10° S night (unlit)
02 Jun - 23:06:06 10° SSW 23:08:47 14° S 23:11:04 10° SE visible
03 Jun - 01:17:31 10° SW 01:19:25 13° S 01:21:13 10° SSE night (unlit)
03 Jun - 21:51:36 10° SSW 21:54:33 13° S 21:57:01 10° SE visible
04 Jun - 00:02:35 10° SW 00:05:27 16° S 00:07:55 10° SE visible
04 Jun - 20:37:39 10° S 20:40:05 12° SSE 20:42:13 10° SE daylight
04 Jun - 22:47:30 10° SW 22:51:24 18° S 22:54:26 10° SE visible
05 Jun - 00:59:56 10° SW 01:02:00 13° SSW 01:03:55 10° SSE visible
05 Jun - 21:32:19 10° SSW 21:37:07 18° S 21:40:44 10° SE daylight
05 Jun - 23:44:29 10° SW 23:48:05 18° S 23:50:57 10° SE visible
06 Jun - 20:17:18 10° SSW 20:22:33 16° SSE 20:26:34 10° SE daylight
06 Jun - 22:28:56 10° SW 22:33:59 21° S 22:37:39 10° SE visible
